This is the latest recevied weather packets stored in our database for station/object G1SCQ. If no packets are shown the sender has not sent any weather packets the latest 10 day(s).
| Time | Temp. | Humidity | Pressure | Rain* | Wind** | Luminosity | Snow |
|---|---|---|---|---|---|---|---|
| 1777674963 | 15.56° C | 79% | 1017.7 hPa | 0 mm | - | 0 W/m² | - |
| 1777674424 | 15.56° C | 78% | 1017.8 hPa | 0 mm | - | 0 W/m² | - |
| 1777673884 | 15.56° C | 78% | 1017.8 hPa | 0 mm | - | 0 W/m² | - |
| 1777673343 | 15° C | 78% | 1017.8 hPa | 0 mm | - | 0 W/m² | - |
| 1777672803 | 15° C | 75% | 1017.7 hPa | 0 mm | - | 0 W/m² | - |
| 1777672443 | 15° C | 73% | 1017.8 hPa | 0 mm | - | 0 W/m² | - |
| 1777671903 | 15° C | 72% | 1017.9 hPa | 0 mm | - | 0 W/m² | - |
| 1777671363 | 15° C | 71% | 1017.8 hPa | 0 mm | - | 0 W/m² | - |
| 1777670823 | 15.56° C | 69% | 1017.8 hPa | 0 mm | - | 0 W/m² | - |
| 1777670286 | 16.67° C | 63% | 1017.6 hPa | 0 mm | - | 0 W/m² | - |
| 1777669746 | 16.67° C | 62% | 1017.7 hPa | 0 mm | - | 0 W/m² | - |
| 1777669206 | 17.22° C | 61% | 1017.4 hPa | 0 mm | - | 0 W/m² | - |
| 1777668846 | 17.22° C | 59% | 1017.6 hPa | 0 mm | - | 0 W/m² | - |
| 1777668306 | 17.22° C | 59% | 1017.6 hPa | 0 mm | - | 0 W/m² | - |
| 1777667766 | 17.22° C | 58% | 1017.3 hPa | 0 mm | - | 0 W/m² | - |
| 1777667226 | 17.22° C | 58% | 1017.2 hPa | 0 mm | - | 0 W/m² | - |
| 1777666686 | 17.22° C | 58% | 1017.2 hPa | 0 mm | - | 0 W/m² | - |
| 1777666146 | 17.22° C | 57% | 1017.4 hPa | 0 mm | - | 0 W/m² | - |
| 1777665606 | 17.78° C | 56% | 1017.3 hPa | 0 mm | - | 0 W/m² | - |
| 1777665246 | 17.78° C | 55% | 1017.4 hPa | 0 mm | - | 0 W/m² | - |
| 1777664706 | 18.33° C | 55% | 1017.1 hPa | 0 mm | - | 0 W/m² | - |
| 1777664166 | 18.89° C | 55% | 1017.2 hPa | 0 mm | - | 0 W/m² | - |
| 1777663627 | 19.44° C | 52% | 1017.2 hPa | 0 mm | - | 2 W/m² | - |
| 1777663086 | 19.44° C | 52% | 1017.1 hPa | 0 mm | - | 4 W/m² | - |
| 1777662547 | 20° C | 51% | 1017.2 hPa | 0 mm | - | 8 W/m² | - |
* Rain latest hour (hover to see other rain measurements)
** Current wind speed in m/s (hover to see current wind gust speed)